Dean International
Flight School

Career Spotlight

Mika

Mika

Congratulations to Mika from Khazakstan. She recently sent us this photo of her flying an Airbus airliner.

More...
Mika's Success Story
close

Congratulations to Mika from Khazakstan. She recently sent us this photo of her flying an Airbus airliner.

Mario

Mario

My dreams could not have been realized if I wouldn't have been part of the Dean International family.

More...
Mario's Success Story
close

"My dreams could not have been realized if I wouldn't have been part of the Dean International family. Thank you Robert, thanks to all my co-workers, and thanks to all of my students!"

Fernando

Fernando

I am now working as a First Officer at TACA and am enjoying every moment of it.

More...
Fernando's Success Story
close

"Will never forget my time of flight training at Dean International. I am now working as a First Officer at TACA and am enjoying every moment of it."

Alvaro

Alvaro

Because of the flight time I was able to built while instructing, I got the experience needed to apply to an airline in Colombia.

More...
Alvaro's Success Story
close

Dean alumnus Alvaro Londoño currently flies with Tampa Cargo. He says of his experience at Dean: "I want to take this opportunity to thank you for giving me the chance to build my experience and expand my knowledge in Dean International. Because of the flight time I was able to built flight instructing, I got the experience needed to apply to an airline in Colombia."

Ralph

Ralph

Every Aruban student of Dean International has made it into Tiara Air Aruba, that is very nice.

More...
Ralph's Success Story
close

"Next to me is my Co-Pilot, Elison. This picture was taken on our first flight together, which was almost exactly 5 years after I finished at Dean International. [...] Every Aruban student of Dean International has made it into Tiara Air Aruba. [...] The future looks bright here in Aruba."

Rohaan

Rohaan

The [..] staff will all work diligently to help you finish your certificates as safely and efficiently as possible.

More...
Rohaan's Success Story
close

After receiving very hard times from other flight schools [...], I came to Dean International where Robert Dean personally sat down with me and gave me a financial and chronological look into how much remained to finish my private pilot certificate. Through his hard efforts as an instructor and mentor, I was able to finish my private pilot certificate within one week.

Welcome to Dean International

In over two decades, Dean International has educated over 7,000 pilots from all over the world, including over 1,000 students from India alone. By offering a great training experience, a friendly service staff, an ample variety of aircraft, and by improving constantly, we have become one of the largest, most prestigious FAA 141-approved flight schools in North America. Located in Miami, Florida, USA, our flight school offers an ideal location for year-round, "learn to fly" weather, flight training. Dean International is not only well-equipped to provide services to professional trainees but also caters to General Aviation renters. Visit or contact our headquarters at Kendall-Tamiami Executive Airport located in Miami, FL today to learn more about us, or simply read more about our programs if you are an international student interested in joining our school.

Local Airport Information
TAF FOR KTMB (Issued: Tue, April 28th 2015 4:39 AM UTC)
TAF
      AMD KTMB 280336Z 2804/2824 02008KT P6SM VCSH SCT030 SCT120 BKN250
      FM281600 17011KT P6SM VCTS SCT030CB BKN050
     
METAR FOR KTMB (Issued: Tue, April 28th 2015 2:53 AM UTC):
KTMB 280253Z AUTO 02009KT 10SM SCT034 28/22 A2986 RMK AO2 SLP109 T02780217 51019 $

This weather information is provided by the National Weather Service.
It is automatically refreshed every three minutes.
TAF FOR KHST (Issued: Tue, April 28th 2015 3:12 AM UTC)
TAF
      AMD KHST 2803/2906 24009KT 9999 SCT030 SCT250 QNH2983INS
      TEMPO 2804/2808 36009KT 9000 -TSRA BKN030CB
      BECMG 2814/2815 22012KT 9999 BKN040 BKN200 QNH2980INS
      TEMPO 2819/2824 24015G25KT 9000 -TSRA BKN040CB
      BECMG 2902/2903 VRB06KT 8000 BR BKN025 QNH2985INS TX32/2817Z TN24/2808Z
      AMD 280306
     
METAR FOR KHST (Issued: Tue, April 28th 2015 2:58 AM UTC):
KHST 280258Z AUTO 20003KT 10SM SCT031 28/25 A2985 RMK AO2 SLP111 T02760245 51016

This weather information is provided by the National Weather Service.
It is automatically refreshed every three minutes.
TAF FOR KOPF (Issued: Tue, April 28th 2015 4:36 AM UTC)
TAF
      AMD KOPF 280334Z 2804/2824 04008KT P6SM VCSH FEW040 BKN250
      FM281500 16010G20KT P6SM VCTS SCT030CB SCT050
     
METAR FOR KOPF (Issued: Tue, April 28th 2015 2:53 AM UTC):
KOPF 280253Z AUTO 06009KT 10SM FEW045 25/23 A2987 RMK AO2 SLP114 60000 T02500228 51018

This weather information is provided by the National Weather Service.
It is automatically refreshed every three minutes.
TAF FOR KMIA (Issued: Tue, April 28th 2015 3:33 AM UTC)
TAF
      AMD KMIA 280328Z 2803/2824 03006KT P6SM VCSH FEW019 SCT040 BKN250
      FM281500 15010G20KT P6SM VCTS SCT030CB SCT050
     
METAR FOR KMIA (Issued: Tue, April 28th 2015 2:53 AM UTC):
KMIA 280253Z 03006KT 10SM FEW018 SCT035 SCT095 BKN300 27/21 A2987 RMK AO2 SLP115 CB DSNT NE-E T02670211 51021 $

This weather information is provided by the National Weather Service.
It is automatically refreshed every three minutes.
Design by Ariel Llizo
© Dean International Inc. 2012